Syracuse, NY

3:38 AM EST on February 25, 2018 (GMT -0500)
Syracuse Hancock International

Weather History for KSYR - January, 2014

Change the Weather History Date:

Tuesday, January 28, 2014

  Actual Average Record
Temperature  
Mean Temperature 4 °F 24 °F  
Max Temperature 11 °F 32 °F 64 °F (1916)
Min Temperature -4 °F 15 °F -18 °F (2005)
Degree Days  
Heating Degree Days 61 42  
Month to date heating degree days 1251 1163  
Since 1 July heating degree days 3726 3616  
Cooling Degree Days 0 0  
Month to date cooling degree days 0 0  
Year to date cooling degree days 0 0  
Moisture  
Dew Point -9 °F    
Average Humidity 59    
Maximum Humidity 71    
Minimum Humidity 46    
Precipitation  
Precipitation 0.00 in 0.07 in 0.75 in (1974)
Month to date precipitation 2.21 2.29  
Year to date precipitation 2.21 2.29  
Snow  
Snow 0.00 in 1.10 in 9.30 in (2009)
Month to date snowfall 25.3 30.7  
Since 1 July snowfall 68.6 73.3  
Snow Depth 7.00 in    
Sea Level Pressure  
Sea Level Pressure 30.25 in    
Wind  
Wind Speed 13 mph (SW)    
Max Wind Speed 29 mph    
Max Gust Speed 39 mph    
Visibility 10 miles    
Events      
T = Trace of Precipitation, MM = Missing Value Source: NWS Daily Summary

Daily Weather History Graph

Daily Weather History Graph

Search for Another Location

Airport or City:

Trip Planner

Search our weather history database for the weather conditions in past years. The results will help you decide how hot, cold, wet, or windy it might be!

Date:

Astronomy

Jan. 28, 2014 Rise Set
Actual Time 7:23 AM EST 5:11 PM EST
Civil Twilight 6:53 AM EST 5:42 PM EST
Nautical Twilight 6:19 AM EST 6:16 PM EST
Astronomical Twilight 5:45 AM EST 6:49 PM EST
Moon 5:04 AM EST (1/28) 2:58 PM EST (1/28)
Length of Visible Light 10h 48m
Length of Day
9h 47m
Waning Crescent, 7% of the Moon is Illuminated
Jan 28
Waning Crescent
Jan 30
New
Feb 6
First Quarter
Feb 14
Full
Feb 22
Last Quarter

Hourly Weather History & Observations

Time (EST) Temp. Windchill Dew Point Humidity Pressure Visibility Wind Dir Wind Speed Gust Speed Precip Events Conditions
12:54 AM 6.1 °F -14.8 °F -7.1 °F 55% 30.11 in 8.0 mi WSW 21.9 mph 31.1 mph N/A   Scattered Clouds
1:54 AM 6.1 °F -15.2 °F -7.1 °F 55% 30.14 in 9.0 mi WSW 23.0 mph 29.9 mph N/A   Scattered Clouds
2:54 AM 5.0 °F -15.7 °F -8.0 °F 55% 30.16 in 8.0 mi WSW 20.7 mph 29.9 mph N/A   Scattered Clouds
3:54 AM 3.9 °F -17.1 °F -9.9 °F 53% 30.18 in 8.0 mi WSW 20.7 mph 31.1 mph N/A   Mostly Cloudy
4:54 AM 3.9 °F -17.6 °F -9.9 °F 53% 30.21 in 10.0 mi WSW 21.9 mph 28.8 mph N/A   Overcast
5:54 AM 3.0 °F -17.3 °F -13.0 °F 47% 30.23 in 10.0 mi WSW 18.4 mph - N/A   Scattered Clouds
6:54 AM 1.9 °F -19.2 °F -13.0 °F 50% 30.26 in 10.0 mi WSW 19.6 mph 28.8 mph N/A   Partly Cloudy
7:54 AM 3.0 °F -16.1 °F -9.9 °F 55% 30.28 in 10.0 mi WSW 16.1 mph 25.3 mph N/A   Scattered Clouds
8:54 AM 3.9 °F -18.1 °F -9.0 °F 55% 30.31 in 9.0 mi WSW 23.0 mph 32.2 mph N/A   Scattered Clouds
9:54 AM 6.1 °F -14.3 °F -8.0 °F 53% 30.32 in 10.0 mi WSW 20.7 mph - N/A   Scattered Clouds
10:54 AM 7.0 °F -12.1 °F -7.1 °F 53% 30.34 in 10.0 mi WSW 18.4 mph - N/A   Scattered Clouds
11:54 AM 8.1 °F -9.6 °F -8.0 °F 48% 30.33 in 10.0 mi SW 16.1 mph - N/A   Scattered Clouds
12:54 PM 9.0 °F -7.9 °F -8.0 °F 46% 30.30 in 10.0 mi WSW 15.0 mph - N/A   Mostly Cloudy
1:54 PM 10.0 °F -5.2 °F -7.1 °F 46% 30.28 in 10.0 mi WSW 12.7 mph - N/A   Mostly Cloudy
2:54 PM 10.9 °F -4.1 °F -8.0 °F 42% 30.27 in 10.0 mi WSW 12.7 mph - N/A   Mostly Cloudy
3:54 PM 10.9 °F -2.6 °F -6.0 °F 47% 30.28 in 10.0 mi WSW 10.4 mph - N/A   Mostly Cloudy
4:54 PM 10.0 °F -3.7 °F -7.1 °F 46% 30.27 in 10.0 mi SSW 10.4 mph - N/A   Scattered Clouds
5:54 PM 10.0 °F -0.9 °F -7.1 °F 46% 30.26 in 10.0 mi South 6.9 mph - N/A   Scattered Clouds
6:54 PM 5.0 °F - -7.1 °F 58% 30.25 in 10.0 mi Calm Calm - N/A   Scattered Clouds
7:54 PM 3.9 °F - -8.0 °F 58% 30.25 in 10.0 mi Calm Calm - N/A   Scattered Clouds
8:54 PM -0.9 °F - -9.0 °F 69% 30.25 in 10.0 mi Calm Calm - N/A   Mostly Cloudy
9:54 PM -0.0 °F - -9.0 °F 66% 30.23 in 10.0 mi Calm Calm - N/A   Overcast
10:54 PM -2.0 °F - -9.9 °F 69% 30.21 in 10.0 mi Calm Calm - N/A   Overcast
11:54 PM 6.1 °F -5.6 °F -8.0 °F 53% 30.21 in 10.0 mi SW 6.9 mph - N/A   Scattered Clouds